Regional Weather Roundup
Issued by NWS Upton, NY

Current Version | Previous Version | Text Only | Print | Product List | Glossary On
Versions: 1 2 3 4 5 6 7 8 9 10 11 12 13 14 15 16 17 18 19 20 21 22 23 24 25 26 27 28 29 30 31 32 33 34 35 36 37 38 39 40 41 42 43 44 45 46 47 48 49 50
966
ASUS41 KOKX 201205
RWROKX

Regional Weather Roundup
National Weather Service New York NY
800 AM EDT FRI APR 20 2018

Note: "FAIR" indicates few or no clouds below 12,000 feet with no
significant weather and/or obstructions to visibility.

NYZ071-072-176-178-NJZ106-104-201300-
New York City Metro Area

CITY           SKY/WX    TMP DP  RH WIND       PRES   REMARKS
Central Park   FAIR      38  21  50 NW14G26   30.15R WCI  30
Bronx Bot Gard   N/A     37  23  56 NW7       30.14R WCI  32
Bronx Lehman C   N/A     37  23  56 NW13        N/A  WCI  29
LaGuardia Arpt FAIR      40  24  53 NW21G26   30.13R WCI  30
Queens College   N/A     37  23  56 NW14        N/A  WCI  29
Kennedy Intl   FAIR      39  23  52 NW21G28   30.14R WCI  29
Breezy Point     N/A     37 N/A N/A NW15G24     N/A  WCI  28
Brooklyn Coll    N/A     37  21  52 W17         N/A  WCI  28
Staten Island    N/A     37  21  52 NW17G31     N/A  WCI  28
Newark/Liberty FAIR      40  21  46 NW20G28   30.15R WCI  30
Teterboro      FAIR      38  22  52 NW17G28   30.13R WCI  28
$$

NYZ177-179-078>081-201300-
Long Island New York

CITY           SKY/WX    TMP DP  RH WIND       PRES   REMARKS
Jones Beach      N/A     37 N/A N/A NW22G29     N/A  WCI  27
Wantagh          N/A     37  23  56 NW13        N/A  WCI  29
Hempstead        N/A     37  25  60 NW13      30.14S WCI  29
Matinecock Pt    N/A     39 N/A N/A NW24G32     N/A  WCI  28
Farmingdale    FAIR      38  22  52 NW15G24   30.11R WCI  29
MacArthur/ISP  FAIR      39  22  50 NW16G24   30.09R WCI  30
Stony Brook      N/A     37  25  60 NW12        N/A  WCI  30
Shirley        FAIR      38  25  59 N15G24    30.09R WCI  29
Mt Sinai Harb    N/A     37 N/A N/A NW9         N/A  WCI  31
Westhampton    FAIR      38  23  55 NW16G25   30.09R WCI  29
East Hampton   FAIR      37  24  59 NW15G24   30.06R WCI  28
Southold         N/A     37  27  65 NW15        N/A  WCI  28
Montauk          N/A     39  26  59 NW14G24   30.05R WCI  31
$$

NYZ052-065-067-201300-
Hudson Valley

CITY           SKY/WX    TMP DP  RH WIND       PRES   REMARKS
White Plains   FAIR      37  21  52 NW20G26   30.08R WCI  27
Larchmont Harb   N/A     37 N/A N/A W18G25      N/A  WCI  27
Croton On Huds   N/A     39 N/A N/A W21G28      N/A  WCI  29
Somers           N/A     36  23  60 NW10        N/A  WCI  28
Brewster         N/A     34  23  64 N10         N/A  WCI  26
Newburgh       MOSUNNY   34  23  64 N14G23    30.12R WCI  24
Montgomery     FAIR      37  20  50 N14G24    30.12R WCI  28
Otisville        N/A     34  23  64 NW12        N/A  WCI  25
Warwick          N/A     36  25  64 W13         N/A  WCI  27
Suffern          N/A     34  23  64 NW12        N/A  WCI  25
Poughkeepsie   FAIR      38  21  50 NW10G21   30.12R WCI  31
Albany         CLOUDY    36  22  56 NW14      30.12R WCI  27
$$

NJZ001-105-106-008-010-013-015-019>022-104-201300-
New Jersey

CITY           SKY/WX    TMP DP  RH WIND       PRES   REMARKS
Newark/Liberty FAIR      40  21  46 NW20G28   30.15R WCI  30
Teterboro      FAIR      38  22  52 NW17G28   30.13R WCI  28
Caldwell       FAIR      37  20  50 NW16G24   30.15R WCI  28
Somerville     CLOUDY    39  23  52 NW18G28   30.16R WCI  30
Linden         FAIR      39  20  47 NW16G24   30.16R WCI  30
Perth Amboy      N/A     37 N/A N/A NW23G30     N/A  WCI  26
Sussex         CLOUDY    35  21  56 NW8G20    30.15R WCI  29
Andover          N/A     34  19  54 N13G20    30.16R WCI  25
Trenton        FAIR      39  22  50 NW14G23   30.18R WCI  31
Millville      FAIR      40  22  48 NW13G24   30.22R WCI  32
Atlantic City  PTSUNNY   39  25  57 NW14      30.20R WCI  31
Wrightstown    CLOUDY    38  23  53 NW12      30.15S WCI  31
Toms River     CLOUDY    39  24  55 W14       30.18R WCI  31
Belmar         PTSUNNY   39  22  50 NW15      30.16R WCI  31
$$

PAZ047>061-062-071-201300-
Eastern Pennsylvania

CITY           SKY/WX    TMP DP  RH WIND       PRES   REMARKS
Philadelphia   FAIR      37  20  50 NW15      30.23R WCI  28
Allentown      FAIR      38  20  48 NW15G24   30.19R WCI  29
Scranton       CLOUDY    32  22  66 N16       30.18R WCI  21
$$

CTZ002-004>006-009-010-012-RIZ004-006-007-MAZ004-011-015-201300-
Southern New England

 In CT

CITY           SKY/WX    TMP DP  RH WIND       PRES   REMARKS
Bradley Intl   FAIR      37  24  59 NW12      30.05R WCI  29
Hartford       FAIR      38  24  57 NW10      30.06R WCI  31
Danbury        FAIR      35  21  56 W10       30.10R WCI  27
Wtrbury/Oxford FAIR      34  21  59 NW15G25   30.06R WCI  24
Norwalk Harbor   N/A     36 N/A N/A NW17G24     N/A  WCI  25
Bridgeport     FAIR      38  23  55 NW15      30.09R WCI  29
Meriden        FAIR      36  22  56 NW10      30.07R WCI  28
New Haven      FAIR      38  22  52 NW16G26   30.07R WCI  29
Chester        FAIR      37  23  56 NW18G24   30.03R WCI  27
Groton         FAIR      38  24  57 NW17G26   30.03R WCI  28
Willimantic    FAIR      37  24  59 NW10      30.04R WCI  30

 In RI

CITY           SKY/WX    TMP DP  RH WIND       PRES   REMARKS
Providence     FAIR      38  27  64 NW13G24   30.00R WCI  30
Block Island   FAIR      37  27  67 NW16G23   30.02R WCI  28
Westerly       FAIR      38  25  59 NW14G25   30.01R WCI  30

In MA

CITY           SKY/WX    TMP DP  RH WIND       PRES   REMARKS
Boston         PTSUNNY   39  27  62 NW17G24   29.95R WCI  30
Worcester      PTSUNNY   32  23  69 NW20G29   29.95R WCI  20
Westfield      FAIR      37  24  59 NW17G26   30.04R WCI  27
Provincetown   FAIR      39  30  70 NW21G28   29.93S WCI  29
Nantucket      FAIR      39  30  70 NW15G26   29.95R WCI  31
$$

ANZ330-335-338-340-345-350-353-355-201300-
Coastal Marine Observations


STATION/POSITION TIME  SKY/WX   TEMP    WIND        PRES    VSBY  WAVE
                                AIR SEA DIR/SP/G                  HT/PER
                 (UTC)          (F)     (DEG/KT/KT) (MB)    (MI)  (FT/S)
NY Harb Entrance 1150            39 44  310/ 23/ 29 1020.4          4/ 4
20 S Fire Island 1150            39 42  320/ 23/ 29 1019.2          5/ 6
23 SSW Montauk P 1150            38 42  300/ 21/ 25 1017.5          5/ 6
15 E Barnegat Li 1130               44                N/A           5/ 5
Hudson Canyon    1150            40 44  310/ 23/ 29 1018.6          8/ 7
Kings Point      1136            38 43  360/ 16/ 20 1020.9
Execution Rocks  NOT AVBL
Western LI Sound NOT AVBL
Central LI Sound 1130            38     310/ 17/ 19   N/A           3
Robbins Reef     1136            38     310/ 19/ 28 1020.9
$$


>>>>>>>>>>>>>>>>>>>>>>>>>>>> KEY <<<<<<<<<<<<<<<<<<<<<<<<<<<
>                                                          <
>     SKY/WX - Sky Condition/Present Weather               <
>     TMP    - Temperature in Fahrenheit                   <
>     DP     - Dew Point in Fahrenheit                     <
>     RH     - Relative Humidity in Percent                <
>     WIND   - Direction (from) and Speed in MPH           <
>     PRES   - Mean Sea Level Pressure (inches of Hg)      <
>     WCI    - Wind Chill Index                            <
>     VSB    - Visibility in Miles                         <
>     HX     - Heat Index                                  <
>     TC     - Temperature in Celsius                      <
>     VRB    - Varibale Wind Direction                     <
>                                                          <
>>>>>>>>>>>>>>>>>>>>>>>>>>>> KEY <<<<<<<<<<<<<<<<<<<<<<<<<<<




USA.gov is the U.S. government's official web portal to all federal, state and local government web resources and services.